STARLINK-1714, 46562

Orbit data source: Space-Track

STARLINK-1714, 46562 is a payload satellite owned by SpaceX/Seattle (US) in LEO that was launched on Tue, 06 Oct 2020 UTC via an FALCON 9 launch vehicle from the Air Force Eastern Test Range (AFETR). Payload-class satellites include a variety of spacecraft equipped with specific instruments for various scientific and technological missions. These include communications satellites like Starlink; space stations such as the ISS; scientific satellites like the Hubble; Earth observation satellites from companies like Planet Labs, Umbra, and HawkEye 360; GPS; miniature CubeSats for education and research; and military/defense satellites.

Loading next visibility...
Identifier
46562, 2020-070AG
Orbit
LEO
Country
Flag of USUS
Related business
Manufacturer
SpaceX/Seattle
Mission
Partially operational Commercial Communications
Bus & Motor
STARLINK, Unknown motor
Mass
260 kg wet, ~248 kg dry
Launch date (UTC)
2020-10-06 (5 years ago)
Launch vehicle
FALCON 9
Launch site
Air Force Eastern Test Range (AFETR)
Object type
Payload
Rocket body
Debris
Shape & HBR
Box + 1 Pan, 10.1 m
Radar Cross Section
13.562 m², Large (>1 m²)

Expand to show TLE details & history
Last TLE update: 1 day ago

TLE from 1 day ago
0 STARLINK-1714
1 46562U 20070AG  26034.10377242  .00032986  00000-0  72291-3 0  9995
2 46562  53.0486 281.4390 0010137 104.4953 255.7178 15.43767488295000
Epoch: 2026-02-03T02:29Z
TLE epoch observation values (Epoch: 2026-02-03T02:29:25.937Z)
Latitude
0.00004°
Longitude
110.79145°
Altitude
437.605 km
Speed
7.65 km/s
True Right ascension
18h 45m 45s
True Declination
0° 00' 00"
Sunlit
Object was in daylight at epoch
Visualization orbit readout
Latitude
Unknown
Longitude
Unknown
Altitude
Unknown
Speed
Unknown
Apparent Right ascension
Unknown
Apparent Declination
Unknown
Sunlit
N/A
Visualization observer readout
Local Sidereal Time
08:27:01
Azimuth
Unknown
Elevation
Unknown
Doppler factor
Unknown
Orbital elements
Apogee altitude
442.185 km
Perigee altitude
428.371 km
Semi-major axis
6,813.415 km
Eccentricity
0.00101
Inclination
53.0486°
RAAN
281.439°
Arg. of periapsis
104.4953°
True anomaly
255.60526°
Mean anomaly
255.7178°
Eccentric anomaly
255.66153°
Mean motion
3.85919 °/min
Orbital period
93.28 mins
BSTAR
0.00072291
Loading maneuver chart data...
Computing Atmospheric mass density...
Loading historical data...
Loading historical data...
Loading historical data...
Loading historical data...
Loading historical data...
Loading historical data...
Loading historical data...

Documentation

Showing up to 5 results
|